Terminal Aerodrome Forecast
Issued by NWS

Home | Current Version | Previous Version | Text Only | Print | Product List | Glossary On
Versions: 1 2 3 4 5 6 7 8 9 10 11 12 13 14 15 16 17 18 19 20 21 22 23 24 25 26 27 28 29
000
FTUS46 KOTX 191440 AAA
TAFCOE
TAF AMD
KCOE 191440Z 1915/2012 19006KT P6SM BKN030
     FM191700 22010KT P6SM FEW080 SCT150
     FM200300 14004KT P6SM SCT200
     FM200900 07005KT P6SM FEW015 FEW200
      AMD LTD TO CLD AND VIS=

USA.gov is the U.S. government's official web portal to all federal, state and local government web resources and services.